20-10-2022, 00:00:03,    125,    0.0,   13.4,   0.00,   0.00, 1007.5,   78.7, -999.0
20-10-2022, 00:00:12,    125,    0.0,   13.4,   0.00,   0.00, 1007.5,   78.7, -999.0
20-10-2022, 00:00:23,    125,    0.0,   13.4,   0.00,   0.00, 1007.5,   78.7, -999.0
20-10-2022, 00:00:33,    125,    0.0,   13.4,   0.00,   0.00, 1007.5,   78.8, -999.0
20-10-2022, 00:00:42,    125,    0.0,   13.4,   0.00,   0.00, 1007.5,   78.8, -999.0
20-10-2022, 00:00:53,    125,    0.0,   13.3,   0.00,   0.00, 1007.5,   78.8, -999.0
20-10-2022, 00:01:02,    126,    0.0,   13.3,   0.00,   0.00, 1007.5,   78.9, -999.0
20-10-2022, 00:01:12,    125,    0.0,   13.4,   0.00,   0.00, 1007.5,   78.9, -999.0
20-10-2022, 00:01:22,    126,    0.0,   13.4,   0.00,   0.00, 1007.5,   78.9, -999.0
20-10-2022, 00:01:32,    125,    0.0,   13.4,   0.00,   0.00, 1007.5,   78.8, -999.0
20-10-2022, 00:01:42,    125,    0.0,   13.4,   0.00,   0.00, 1007.5,   78.9, -999.0
20-10-2022, 00:01:52,    124,    0.1,   13.5,   0.00,   0.00, 1007.6,   79.0, -999.0
20-10-2022, 00:02:02,    126,    0.0,   13.4,   0.00,   0.00, 1007.5,   78.8, -999.0
20-10-2022, 00:02:12,    125,    0.1,   13.4,   0.00,   0.00, 1007.6,   78.9, -999.0
20-10-2022, 00:02:22,    125,    0.7,   13.5,   0.00,   0.00, 1007.6,   79.1, -999.0
20-10-2022, 00:02:32,    125,    0.9,   13.5,   0.00,   0.00, 1007.7,   79.1, -999.0
20-10-2022, 00:02:42,    125,    0.1,   13.4,   0.00,   0.00, 1007.5,   79.0, -999.0
20-10-2022, 00:02:52,    125,    0.1,   13.5,   0.00,   0.00, 1007.5,   78.9, -999.0
20-10-2022, 00:03:02,    125,    0.0,   13.4,   0.00,   0.00, 1007.5,   78.8, -999.0
20-10-2022, 00:03:12,    125,    0.5,   13.5,   0.00,   0.00, 1007.6,   79.1, -999.0
20-10-2022, 00:03:21,    125,    0.1,   13.5,   0.00,   0.00, 1007.5,   78.9, -999.0
20-10-2022, 00:03:32,    125,    0.0,   13.4,   0.00,   0.00, 1007.5,   78.8, -999.0
20-10-2022, 00:03:41,    125,    0.0,   13.4,   0.00,   0.00, 1007.5,   78.8, -999.0
20-10-2022, 00:03:51,    125,    0.0,   13.4,   0.00,   0.00, 1007.4,   78.8, -999.0
20-10-2022, 00:04:03,    125,    0.0,   13.4,   0.00,   0.00, 1007.5,   78.8, -999.0
20-10-2022, 00:04:11,    125,    0.5,   13.5,   0.00,   0.00, 1007.6,   79.1, -999.0
20-10-2022, 00:04:21,    125,    0.2,   13.5,   0.00,   0.00, 1007.5,   79.0, -999.0
20-10-2022, 00:04:31,    125,    0.0,   13.5,   0.00,   0.00, 1007.5,   78.9, -999.0
20-10-2022, 00:04:41,    125,    0.0,   13.5,   0.00,   0.00, 1007.4,   78.7, -999.0
20-10-2022, 00:04:51,    125,    0.0,   13.4,   0.00,   0.00, 1007.4,   78.7, -999.0
20-10-2022, 00:05:01,    125,    0.2,   13.5,   0.00,   0.00, 1007.4,   78.8, -999.0
20-10-2022, 00:05:11,    124,    0.5,   13.5,   0.00,   0.00, 1007.5,   79.0, -999.0
20-10-2022, 00:05:21,    124,    0.8,   13.5,   0.00,   0.00, 1007.5,   79.0, -999.0
20-10-2022, 00:05:31,    125,    0.7,   13.4,   0.00,   0.00, 1007.5,   79.1, -999.0
20-10-2022, 00:05:41,    124,    0.7,   13.5,   0.00,   0.00, 1007.5,   79.1, -999.0
20-10-2022, 00:05:51,    124,    0.4,   13.5,   0.00,   0.00, 1007.5,   79.0, -999.0
20-10-2022, 00:06:01,    124,    0.0,   13.4,   0.00,   0.00, 1007.4,   78.8, -999.0
20-10-2022, 00:06:11,    124,    0.0,   13.5,   0.00,   0.00, 1007.4,   78.8, -999.0
20-10-2022, 00:06:20,    124,    0.0,   13.5,   0.00,   0.00, 1007.4,   78.8, -999.0
20-10-2022, 00:06:31,    124,    0.0,   13.5,   0.00,   0.00, 1007.4,   78.8, -999.0
20-10-2022, 00:06:41,    124,    0.0,   13.5,   0.00,   0.00, 1007.4,   78.7, -999.0
20-10-2022, 00:06:50,    124,    0.0,   13.4,   0.00,   0.00, 1007.4,   78.7, -999.0
20-10-2022, 00:07:00,    124,    0.0,   13.5,   0.00,   0.00, 1007.4,   78.6, -999.0
20-10-2022, 00:07:11,    124,    0.0,   13.5,   0.00,   0.00, 1007.4,   78.6, -999.0
20-10-2022, 00:07:20,    124,    0.0,   13.5,   0.00,   0.00, 1007.4,   78.7, -999.0
20-10-2022, 00:07:30,    124,    0.0,   13.5,   0.00,   0.00, 1007.4,   78.6, -999.0
20-10-2022, 00:07:40,    124,    0.0,   13.4,   0.00,   0.00, 1007.4,   78.7, -999.0
20-10-2022, 00:07:50,    124,    0.0,   13.4,   0.00,   0.00, 1007.4,   78.6, -999.0
20-10-2022, 00:08:00,    124,    0.0,   13.4,   0.00,   0.00, 1007.4,   78.8, -999.0
20-10-2022, 00:08:10,    124,    0.0,   13.4,   0.00,   0.00, 1007.4,   78.7, -999.0
20-10-2022, 00:08:20,    124,    0.0,   13.4,   0.00,   0.00, 1007.4,   78.8, -999.0
20-10-2022, 00:08:30,    124,    0.6,   13.6,   0.00,   0.00, 1007.5,   78.9, -999.0
20-10-2022, 00:08:40,    124,    0.0,   13.5,   0.00,   0.00, 1007.4,   78.7, -999.0
20-10-2022, 00:08:50,    124,    0.0,   13.5,   0.00,   0.00, 1007.4,   78.8, -999.0
20-10-2022, 00:09:00,    124,    0.0,   13.5,   0.00,   0.00, 1007.4,   78.8, -999.0
20-10-2022, 00:09:10,    124,    0.0,   13.4,   0.00,   0.00, 1007.4,   78.7, -999.0
20-10-2022, 00:09:20,    124,    0.7,   13.5,   0.00,   0.00, 1007.5,   78.9, -999.0
20-10-2022, 00:09:29,    126,    0.1,   13.6,   0.00,   0.00, 1007.5,   78.9, -999.0
20-10-2022, 00:09:40,    124,    0.0,   13.5,   0.00,   0.00, 1007.4,   78.5, -999.0
20-10-2022, 00:09:50,    124,    0.0,   13.5,   0.00,   0.00, 1007.4,   78.5, -999.0
20-10-2022, 00:09:59,    123,    0.0,   13.6,   0.00,   0.00, 1007.5,   78.5, -999.0
20-10-2022, 00:10:09,    124,    0.4,   13.5,   0.00,   0.00, 1007.5,   78.8, -999.0
20-10-2022, 00:10:20,    124,    0.0,   13.5,   0.00,   0.00, 1007.4,   78.5, -999.0
20-10-2022, 00:10:29,    124,    0.0,   13.6,   0.00,   0.00, 1007.5,   78.5, -999.0
20-10-2022, 00:10:39,    124,    0.0,   13.5,   0.00,   0.00, 1007.4,   78.4, -999.0
20-10-2022, 00:10:49,    124,    0.0,   13.5,   0.00,   0.00, 1007.4,   78.4, -999.0
20-10-2022, 00:10:59,    124,    0.0,   13.5,   0.00,   0.00, 1007.4,   78.5, -999.0
20-10-2022, 00:11:09,    124,    0.0,   13.5,   0.00,   0.00, 1007.4,   78.5, -999.0
20-10-2022, 00:11:19,    124,    0.0,   13.5,   0.00,   0.00, 1007.4,   78.4, -999.0
20-10-2022, 00:11:29,    124,    0.0,   13.5,   0.00,   0.00, 1007.4,   78.5, -999.0
20-10-2022, 00:11:39,    124,    0.1,   13.6,   0.00,   0.00, 1007.5,   78.7, -999.0
20-10-2022, 00:11:49,    124,    0.0,   13.6,   0.00,   0.00, 1007.4,   78.5, -999.0
20-10-2022, 00:11:59,    124,    0.0,   13.5,   0.00,   0.00, 1007.4,   78.5, -999.0
20-10-2022, 00:12:08,    124,    0.0,   13.5,   0.00,   0.00, 1007.4,   78.4, -999.0
20-10-2022, 00:12:19,    124,    0.1,   13.5,   0.00,   0.00, 1007.4,   78.7, -999.0
20-10-2022, 00:12:29,    124,    0.5,   13.5,   0.00,   0.00, 1007.5,   78.9, -999.0
20-10-2022, 00:12:38,    124,    0.0,   13.5,   0.00,   0.00, 1007.4,   78.6, -999.0
20-10-2022, 00:12:49,     86,    1.0,   13.5,   0.00,   0.00, 1007.5,   78.7, -999.0
20-10-2022, 00:12:59,    133,    2.0,   13.6,   0.00,   0.00, 1007.5,   78.9, -999.0
20-10-2022, 00:13:08,    131,    0.8,   13.5,   0.00,   0.00, 1007.5,   78.8, -999.0
20-10-2022, 00:13:18,    130,    0.6,   13.5,   0.00,   0.00, 1007.5,   78.8, -999.0
20-10-2022, 00:13:29,    130,    0.4,   13.5,   0.00,   0.00, 1007.5,   78.7, -999.0
20-10-2022, 00:13:38,    130,    0.1,   13.5,   0.00,   0.00, 1007.4,   78.6, -999.0
20-10-2022, 00:13:48,    130,    0.5,   13.5,   0.00,   0.00, 1007.4,   78.9, -999.0
20-10-2022, 00:13:58,    130,    0.0,   13.5,   0.00,   0.00, 1007.4,   78.7, -999.0
20-10-2022, 00:14:08,    130,    0.2,   13.5,   0.00,   0.00, 1007.4,   78.9, -999.0
20-10-2022, 00:14:18,    130,    0.3,   13.5,   0.00,   0.00, 1007.4,   78.8, -999.0
20-10-2022, 00:14:28,    130,    0.2,   13.5,   0.00,   0.00, 1007.4,   78.8, -999.0
20-10-2022, 00:14:38,    130,    0.0,   13.4,   0.00,   0.00, 1007.3,   78.6, -999.0
20-10-2022, 00:14:48,    131,    0.0,   13.4,   0.00,   0.00, 1007.3,   78.6, -999.0
20-10-2022, 00:14:58,    130,    0.0,   13.4,   0.00,   0.00, 1007.3,   78.7, -999.0
20-10-2022, 00:15:08,    130,    0.0,   13.4,   0.00,   0.00, 1007.3,   78.6, -999.0
20-10-2022, 00:15:17,    130,    0.0,   13.4,   0.00,   0.00, 1007.3,   78.8, -999.0
20-10-2022, 00:15:28,    130,    0.0,   13.4,   0.00,   0.00, 1007.3,   78.6, -999.0
20-10-2022, 00:15:38,    130,    0.0,   13.4,   0.00,   0.00, 1007.3,   78.7, -999.0
20-10-2022, 00:15:47,    130,    0.0,   13.3,   0.00,   0.00, 1007.3,   78.7, -999.0
20-10-2022, 00:15:58,    130,    0.0,   13.4,   0.00,   0.00, 1007.3,   78.8, -999.0
20-10-2022, 00:16:07,    134,    0.0,   13.4,   0.00,   0.00, 1007.3,   78.9, -999.0
20-10-2022, 00:16:17,    130,    0.0,   13.4,   0.00,   0.00, 1007.3,   78.8, -999.0
20-10-2022, 00:16:27,    131,    0.5,   13.4,   0.00,   0.00, 1007.4,   79.1, -999.0
20-10-2022, 00:16:37,    130,    1.4,   13.5,   0.00,   0.00, 1007.4,   79.3, -999.0
20-10-2022, 00:16:47,    130,    0.2,   13.5,   0.00,   0.00, 1007.4,   79.1, -999.0
20-10-2022, 00:16:57,    130,    0.0,   13.5,   0.00,   0.00, 1007.3,   78.9, -999.0
20-10-2022, 00:17:07,    130,    0.2,   13.5,   0.00,   0.00, 1007.4,   79.1, -999.0
20-10-2022, 00:17:17,    130,    1.4,   13.5,   0.00,   0.00, 1007.5,   79.2, -999.0
20-10-2022, 00:17:27,    130,    0.6,   13.5,   0.00,   0.00, 1007.5,   79.2, -999.0
20-10-2022, 00:17:37,    130,    0.0,   13.4,   0.00,   0.00, 1007.4,   79.1, -999.0
20-10-2022, 00:17:47,    130,    0.0,   13.4,   0.00,   0.00, 1007.3,   78.9, -999.0
20-10-2022, 00:17:57,    130,    0.2,   13.4,   0.00,   0.00, 1007.4,   78.9, -999.0
20-10-2022, 00:18:07,    130,    0.0,   13.5,   0.00,   0.00, 1007.3,   78.9, -999.0
20-10-2022, 00:18:17,    130,    0.0,   13.4,   0.00,   0.00, 1007.3,   78.9, -999.0
20-10-2022, 00:18:26,    130,    0.7,   13.4,   0.00,   0.00, 1007.4,   79.2, -999.0
20-10-2022, 00:18:37,    130,    0.3,   13.4,   0.00,   0.00, 1007.4,   79.0, -999.0
20-10-2022, 00:18:47,    129,    0.1,   13.4,   0.00,   0.00, 1007.4,   79.1, -999.0
20-10-2022, 00:18:56,    130,    0.3,   13.4,   0.00,   0.00, 1007.4,   79.1, -999.0
20-10-2022, 00:19:07,    130,    0.3,   13.4,   0.00,   0.00, 1007.4,   79.2, -999.0
20-10-2022, 00:19:16,    130,    0.0,   13.5,   0.00,   0.00, 1007.3,   78.9, -999.0
20-10-2022, 00:19:26,    130,    0.0,   13.4,   0.00,   0.00, 1007.3,   78.9, -999.0
20-10-2022, 00:19:36,    130,    0.0,   13.4,   0.00,   0.00, 1007.3,   79.0, -999.0
20-10-2022, 00:19:46,    129,    0.0,   13.4,   0.00,   0.00, 1007.3,   78.9, -999.0
20-10-2022, 00:19:56,    130,    0.0,   13.5,   0.00,   0.00, 1007.3,   79.0, -999.0
20-10-2022, 00:20:06,    130,    0.0,   13.5,   0.00,   0.00, 1007.3,   78.9, -999.0
20-10-2022, 00:20:16,    130,    0.0,   13.5,   0.00,   0.00, 1007.3,   79.0, -999.0
20-10-2022, 00:20:26,    130,    0.0,   13.5,   0.00,   0.00, 1007.3,   79.0, -999.0
20-10-2022, 00:20:36,    130,    0.4,   13.6,   0.00,   0.00, 1007.3,   79.1, -999.0
20-10-2022, 00:20:46,    129,    0.7,   13.7,   0.00,   0.00, 1007.4,   79.2, -999.0
20-10-2022, 00:20:56,    130,    0.0,   13.5,   0.00,   0.00, 1007.3,   78.7, -999.0
20-10-2022, 00:21:06,    130,    0.0,   13.5,   0.00,   0.00, 1007.3,   78.7, -999.0
20-10-2022, 00:21:16,    130,    0.1,   13.5,   0.00,   0.00, 1007.3,   78.8, -999.0
20-10-2022, 00:21:26,    129,    0.0,   13.4,   0.00,   0.00, 1007.3,   78.7, -999.0
20-10-2022, 00:21:35,    129,    0.0,   13.4,   0.00,   0.00, 1007.3,   78.8, -999.0
20-10-2022, 00:21:46,    129,    0.0,   13.4,   0.00,   0.00, 1007.2,   78.8, -999.0
20-10-2022, 00:21:55,    130,    0.0,   13.5,   0.00,   0.00, 1007.2,   78.8, -999.0
20-10-2022, 00:22:05,    129,    0.0,   13.5,   0.00,   0.00, 1007.2,   78.9, -999.0
20-10-2022, 00:22:15,    129,    0.0,   13.5,   0.00,   0.00, 1007.2,   78.8, -999.0
20-10-2022, 00:22:25,    129,    0.0,   13.4,   0.00,   0.00, 1007.2,   79.0, -999.0
20-10-2022, 00:22:35,    129,    0.0,   13.4,   0.00,   0.00, 1007.2,   78.8, -999.0
20-10-2022, 00:22:45,    122,    1.1,   13.6,   0.00,   0.00, 1007.3,   79.1, -999.0
20-10-2022, 00:22:55,    122,    0.1,   13.4,   0.00,   0.00, 1007.2,   79.0, -999.0
20-10-2022, 00:23:05,    122,    0.0,   13.4,   0.00,   0.00, 1007.2,   78.9, -999.0
20-10-2022, 00:23:15,    122,    0.0,   13.4,   0.00,   0.00, 1007.2,   79.0, -999.0
20-10-2022, 00:23:25,    122,    0.0,   13.4,   0.00,   0.00, 1007.2,   78.9, -999.0
20-10-2022, 00:23:35,    122,    0.0,   13.4,   0.00,   0.00, 1007.1,   79.0, -999.0
20-10-2022, 00:23:45,    122,    0.0,   13.4,   0.00,   0.00, 1007.1,   78.9, -999.0
20-10-2022, 00:23:55,    122,    0.0,   13.4,   0.00,   0.00, 1007.1,   78.9, -999.0
20-10-2022, 00:24:05,    122,    0.0,   13.4,   0.00,   0.00, 1007.1,   78.9, -999.0
20-10-2022, 00:24:15,    122,    0.0,   13.4,   0.00,   0.00, 1007.1,   78.8, -999.0
20-10-2022, 00:24:25,    123,    0.1,   13.4,   0.00,   0.00, 1007.2,   79.2, -999.0
20-10-2022, 00:24:35,    122,    0.0,   13.3,   0.00,   0.00, 1007.1,   79.1, -999.0
20-10-2022, 00:24:44,    113,    0.0,   13.4,   0.00,   0.00, 1007.1,   79.1, -999.0
20-10-2022, 00:24:55,    122,    0.0,   13.4,   0.00,   0.00, 1007.1,   79.1, -999.0
20-10-2022, 00:25:04,    122,    0.0,   13.4,   0.00,   0.00, 1007.1,   79.1, -999.0
20-10-2022, 00:25:14,    122,    0.0,   13.4,   0.00,   0.00, 1007.0,   79.0, -999.0
20-10-2022, 00:25:24,    122,    0.0,   13.4,   0.00,   0.00, 1007.1,   79.1, -999.0
20-10-2022, 00:25:34,    122,    0.0,   13.4,   0.00,   0.00, 1007.1,   79.2, -999.0
20-10-2022, 00:25:44,    122,    0.0,   13.3,   0.00,   0.00, 1007.0,   79.1, -999.0
20-10-2022, 00:25:54,    122,    0.0,   13.3,   0.00,   0.00, 1007.0,   79.1, -999.0
20-10-2022, 00:26:04,    122,    0.0,   13.3,   0.00,   0.00, 1007.0,   79.1, -999.0
20-10-2022, 00:26:14,    122,    0.0,   13.3,   0.00,   0.00, 1007.0,   79.1, -999.0
20-10-2022, 00:26:24,    122,    0.0,   13.3,   0.00,   0.00, 1007.0,   79.3, -999.0
20-10-2022, 00:26:34,    122,    0.0,   13.3,   0.00,   0.00, 1007.0,   79.1, -999.0
20-10-2022, 00:26:44,    122,    0.0,   13.4,   0.00,   0.00, 1006.9,   79.3, -999.0
20-10-2022, 00:26:54,    122,    0.0,   13.5,   0.00,   0.00, 1006.9,   79.3, -999.0
20-10-2022, 00:27:04,    122,    0.0,   13.3,   0.00,   0.00, 1006.9,   79.3, -999.0
20-10-2022, 00:27:14,    122,    0.0,   13.3,   0.00,   0.00, 1006.9,   79.3, -999.0
20-10-2022, 00:27:24,    122,    0.0,   13.3,   0.00,   0.00, 1006.9,   79.1, -999.0
20-10-2022, 00:27:34,    122,    0.0,   13.3,   0.00,   0.00, 1006.9,   79.2, -999.0
20-10-2022, 00:27:43,    122,    0.0,   13.3,   0.00,   0.00, 1006.9,   79.2, -999.0
20-10-2022, 00:27:53,    122,    0.0,   13.3,   0.00,   0.00, 1006.9,   79.2, -999.0
20-10-2022, 00:28:04,    122,    0.0,   13.3,   0.00,   0.00, 1006.9,   79.3, -999.0
20-10-2022, 00:28:13,    122,    0.1,   13.4,   0.00,   0.00, 1006.9,   79.4, -999.0
20-10-2022, 00:28:23,    123,    0.0,   13.4,   0.00,   0.00, 1006.9,   79.3, -999.0
20-10-2022, 00:28:33,    122,    0.0,   13.3,   0.00,   0.00, 1006.9,   79.4, -999.0
20-10-2022, 00:28:43,    123,    0.1,   13.3,   0.00,   0.00, 1007.0,   79.5, -999.0
20-10-2022, 00:28:53,    122,    0.9,   13.4,   0.00,   0.00, 1007.0,   79.8, -999.0
20-10-2022, 00:29:03,     84,    1.2,   13.5,   0.00,   0.00, 1007.1,   79.8, -999.0
20-10-2022, 00:29:13,     86,    0.1,   13.4,   0.00,   0.00, 1006.9,   79.5, -999.0
20-10-2022, 00:29:23,     86,    0.0,   13.4,   0.00,   0.00, 1006.9,   79.5, -999.0
20-10-2022, 00:29:33,     86,    0.0,   13.3,   0.00,   0.00, 1006.9,   79.4, -999.0
20-10-2022, 00:29:43,     86,    0.0,   13.3,   0.00,   0.00, 1006.9,   79.5, -999.0
20-10-2022, 00:29:53,     86,    0.0,   13.4,   0.00,   0.00, 1006.9,   79.5, -999.0
20-10-2022, 00:30:03,     86,    0.0,   13.3,   0.00,   0.00, 1006.9,   79.5, -999.0
20-10-2022, 00:30:13,     86,    0.0,   13.4,   0.00,   0.00, 1006.9,   79.5, -999.0
20-10-2022, 00:30:22,     86,    0.0,   13.4,   0.00,   0.00, 1006.8,   79.4, -999.0
20-10-2022, 00:30:33,     86,    0.0,   13.4,   0.00,   0.00, 1006.9,   79.5, -999.0
20-10-2022, 00:30:43,     86,    0.0,   13.4,   0.00,   0.00, 1006.9,   79.4, -999.0
20-10-2022, 00:30:52,     86,    0.0,   13.4,   0.00,   0.00, 1006.9,   79.3, -999.0
20-10-2022, 00:31:02,     86,    0.0,   13.3,   0.00,   0.00, 1006.8,   79.4, -999.0
20-10-2022, 00:31:13,     86,    0.0,   13.4,   0.00,   0.00, 1006.9,   79.3, -999.0
20-10-2022, 00:31:22,     86,    0.0,   13.4,   0.00,   0.00, 1006.9,   79.4, -999.0
20-10-2022, 00:31:32,     86,    0.0,   13.4,   0.00,   0.00, 1006.9,   79.3, -999.0
20-10-2022, 00:31:42,     86,    0.0,   13.4,   0.00,   0.00, 1006.9,   79.3, -999.0
20-10-2022, 00:31:52,     85,    0.0,   13.4,   0.00,   0.00, 1006.9,   79.3, -999.0
20-10-2022, 00:32:02,     88,    0.0,   13.3,   0.00,   0.00, 1006.8,   79.3, -999.0
20-10-2022, 00:32:12,     90,    0.8,   13.5,   0.00,   0.00, 1006.9,   79.7, -999.0
20-10-2022, 00:32:22,     89,    0.1,   13.4,   0.00,   0.00, 1006.9,   79.5, -999.0
20-10-2022, 00:32:32,     90,    0.0,   13.3,   0.00,   0.00, 1006.8,   79.4, -999.0
20-10-2022, 00:32:42,     89,    0.4,   13.4,   0.00,   0.00, 1006.9,   79.8, -999.0
20-10-2022, 00:32:52,     89,    0.5,   13.4,   0.00,   0.00, 1006.9,   79.8, -999.0
20-10-2022, 00:33:02,     89,    0.0,   13.2,   0.00,   0.00, 1006.8,   79.5, -999.0
20-10-2022, 00:33:12,     89,    0.0,   13.2,   0.00,   0.00, 1006.8,   79.5, -999.0
20-10-2022, 00:33:22,     89,    0.0,   13.3,   0.00,   0.00, 1006.7,   79.7, -999.0
20-10-2022, 00:33:31,     90,    0.0,   13.3,   0.00,   0.00, 1006.8,   79.6, -999.0
20-10-2022, 00:33:42,     89,    0.0,   13.3,   0.00,   0.00, 1006.7,   79.6, -999.0
20-10-2022, 00:33:52,     89,    0.0,   13.3,   0.00,   0.00, 1006.7,   79.6, -999.0
20-10-2022, 00:34:01,     89,    0.0,   13.3,   0.00,   0.00, 1006.7,   79.6, -999.0
20-10-2022, 00:34:11,     89,    0.0,   13.3,   0.00,   0.00, 1006.7,   79.6, -999.0
20-10-2022, 00:34:22,     89,    0.0,   13.3,   0.00,   0.00, 1006.7,   79.6, -999.0
20-10-2022, 00:34:31,     89,    0.1,   13.3,   0.00,   0.00, 1006.8,   79.8, -999.0
20-10-2022, 00:34:41,     89,    0.5,   13.4,   0.00,   0.00, 1006.8,   80.0, -999.0
20-10-2022, 00:34:51,     89,    0.0,   13.3,   0.00,   0.00, 1006.7,   79.8, -999.0
20-10-2022, 00:35:01,     89,    0.0,   13.3,   0.00,   0.00, 1006.7,   79.8, -999.0
20-10-2022, 00:35:11,     89,    0.0,   13.3,   0.00,   0.00, 1006.7,   79.9, -999.0
20-10-2022, 00:35:21,     89,    0.0,   13.3,   0.00,   0.00, 1006.7,   79.8, -999.0
20-10-2022, 00:35:31,     88,    0.1,   13.3,   0.00,   0.00, 1006.7,   79.9, -999.0
20-10-2022, 00:35:41,     65,    1.1,   13.3,   0.00,   0.00, 1006.8,   80.2, -999.0
20-10-2022, 00:35:51,     65,    0.0,   13.3,   0.00,   0.00, 1006.7,   79.9, -999.0
20-10-2022, 00:36:01,     65,    0.0,   13.2,   0.00,   0.00, 1006.7,   79.9, -999.0
20-10-2022, 00:36:11,     65,    0.0,   13.2,   0.00,   0.00, 1006.7,   80.0, -999.0
20-10-2022, 00:36:21,     70,    0.0,   13.2,   0.00,   0.00, 1006.7,   80.0, -999.0
20-10-2022, 00:36:31,     70,    0.3,   13.3,   0.00,   0.00, 1006.7,   80.2, -999.0
20-10-2022, 00:36:40,     70,    0.0,   13.2,   0.00,   0.00, 1006.7,   80.0, -999.0
20-10-2022, 00:36:51,     71,    0.0,   13.2,   0.00,   0.00, 1006.7,   80.1, -999.0
20-10-2022, 00:37:01,     71,    0.0,   13.3,   0.00,   0.00, 1006.7,   80.1, -999.0
20-10-2022, 00:37:10,     70,    0.0,   13.3,   0.00,   0.00, 1006.7,   80.1, -999.0
20-10-2022, 00:37:20,     71,    0.0,   13.3,   0.00,   0.00, 1006.7,   80.0, -999.0
20-10-2022, 00:37:30,     71,    0.0,   13.3,   0.00,   0.00, 1006.7,   80.1, -999.0
20-10-2022, 00:37:40,     71,    0.0,   13.3,   0.00,   0.00, 1006.7,   80.1, -999.0
20-10-2022, 00:37:50,     70,    0.0,   13.2,   0.00,   0.00, 1006.7,   80.1, -999.0
20-10-2022, 00:38:00,     71,    0.0,   13.2,   0.00,   0.00, 1006.7,   80.1, -999.0
20-10-2022, 00:38:10,    112,    0.6,   13.2,   0.00,   0.00, 1006.8,   80.2, -999.0
20-10-2022, 00:38:20,    112,    1.2,   13.3,   0.00,   0.00, 1006.9,   80.5, -999.0
20-10-2022, 00:38:30,    113,    0.8,   13.3,   0.00,   0.00, 1007.0,   80.6, -999.0
20-10-2022, 00:38:40,    112,    1.5,   13.3,   0.00,   0.00, 1007.0,   80.6, -999.0
20-10-2022, 00:38:50,    111,    1.0,   13.3,   0.00,   0.00, 1007.0,   80.7, -999.0
20-10-2022, 00:39:00,    112,    0.5,   13.2,   0.00,   0.00, 1007.0,   80.7, -999.0
20-10-2022, 00:39:10,    111,    0.0,   13.1,   0.00,   0.00, 1006.9,   80.3, -999.0
20-10-2022, 00:39:20,    111,    0.0,   13.1,   0.00,   0.00, 1006.9,   80.5, -999.0
20-10-2022, 00:39:30,    111,    0.0,   13.1,   0.00,   0.00, 1006.9,   80.5, -999.0
20-10-2022, 00:39:40,    111,    0.0,   13.2,   0.00,   0.00, 1006.9,   80.5, -999.0
20-10-2022, 00:39:49,    111,    0.0,   13.2,   0.00,   0.00, 1006.9,   80.5, -999.0
20-10-2022, 00:40:00,    111,    0.0,   13.1,   0.00,   0.00, 1006.9,   80.6, -999.0
20-10-2022, 00:40:09,    111,    0.0,   13.1,   0.00,   0.00, 1006.9,   80.5, -999.0
20-10-2022, 00:40:19,    111,    0.0,   13.1,   0.00,   0.00, 1006.9,   80.5, -999.0
20-10-2022, 00:40:29,    111,    0.0,   13.1,   0.00,   0.00, 1006.9,   80.6, -999.0
20-10-2022, 00:40:39,    111,    0.0,   13.0,   0.00,   0.00, 1007.0,   80.6, -999.0
20-10-2022, 00:40:49,    111,    0.0,   13.0,   0.00,   0.00, 1006.9,   80.7, -999.0
20-10-2022, 00:40:59,    111,    0.0,   13.0,   0.00,   0.00, 1006.9,   80.8, -999.0
20-10-2022, 00:41:09,    111,    0.0,   13.0,   0.00,   0.00, 1006.9,   80.8, -999.0
20-10-2022, 00:41:19,    111,    0.0,   13.0,   0.00,   0.00, 1006.9,   80.9, -999.0
20-10-2022, 00:41:29,    111,    0.0,   13.0,   0.00,   0.00, 1007.0,   81.1, -999.0
20-10-2022, 00:41:39,    111,    0.5,   13.1,   0.00,   0.00, 1007.1,   81.4, -999.0
20-10-2022, 00:41:49,    111,    0.1,   13.0,   0.00,   0.00, 1007.0,   81.2, -999.0
20-10-2022, 00:41:59,    111,    0.0,   13.0,   0.00,   0.00, 1007.0,   81.1, -999.0
20-10-2022, 00:42:09,    112,    0.0,   13.0,   0.00,   0.00, 1006.9,   81.3, -999.0
20-10-2022, 00:42:19,    112,    1.2,   13.1,   0.00,   0.00, 1007.0,   81.7, -999.0
20-10-2022, 00:42:29,    110,    1.9,   13.2,   0.00,   0.00, 1007.1,   81.8, -999.0
20-10-2022, 00:42:39,    110,    1.0,   13.2,   0.00,   0.00, 1007.0,   81.8, -999.0
20-10-2022, 00:42:48,    110,    1.5,   13.2,   0.00,   0.00, 1007.0,   81.8, -999.0
20-10-2022, 00:42:58,    109,    0.8,   13.2,   0.00,   0.00, 1007.0,   81.8, -999.0
20-10-2022, 00:43:09,    103,    1.0,   13.3,   0.00,   0.00, 1007.0,   81.7, -999.0
20-10-2022, 00:43:18,     98,    1.5,   13.3,   0.00,   0.00, 1007.0,   81.8, -999.0
20-10-2022, 00:43:28,     98,    2.0,   13.3,   0.00,   0.00, 1007.0,   81.7, -999.0
20-10-2022, 00:43:38,     98,    1.5,   13.3,   0.00,   0.00, 1007.0,   81.7, -999.0
20-10-2022, 00:43:48,     98,    1.1,   13.3,   0.00,   0.00, 1007.0,   81.6, -999.0
20-10-2022, 00:43:58,     98,    1.5,   13.3,   0.00,   0.00, 1007.0,   81.6, -999.0
20-10-2022, 00:44:08,     98,    0.1,   13.3,   0.00,   0.00, 1006.9,   81.3, -999.0
20-10-2022, 00:44:18,     98,    0.2,   13.3,   0.00,   0.00, 1006.9,   81.2, -999.0
20-10-2022, 00:44:28,     98,    0.4,   13.3,   0.00,   0.00, 1006.9,   81.3, -999.0
20-10-2022, 00:44:38,     98,    0.1,   13.2,   0.00,   0.00, 1006.9,   81.2, -999.0
20-10-2022, 00:44:48,     98,    0.0,   13.1,   0.00,   0.00, 1006.9,   81.1, -999.0
20-10-2022, 00:44:58,     98,    0.5,   13.3,   0.00,   0.00, 1007.0,   81.3, -999.0
20-10-2022, 00:45:08,     98,    0.4,   13.3,   0.00,   0.00, 1007.0,   81.3, -999.0
20-10-2022, 00:45:18,    148,    1.3,   13.3,   0.00,   0.00, 1007.0,   81.4, -999.0
20-10-2022, 00:45:27,    118,    1.2,   13.3,   0.00,   0.00, 1007.1,   81.4, -999.0
20-10-2022, 00:45:38,    118,    0.7,   13.3,   0.00,   0.00, 1007.0,   81.3, -999.0
20-10-2022, 00:45:48,    117,    1.1,   13.3,   0.00,   0.00, 1007.0,   81.4, -999.0
20-10-2022, 00:45:57,    117,    1.1,   13.2,   0.00,   0.00, 1007.0,   81.5, -999.0
20-10-2022, 00:46:07,    117,    1.1,   13.2,   0.00,   0.00, 1007.1,   81.5, -999.0
20-10-2022, 00:46:18,    117,    0.4,   13.2,   0.00,   0.00, 1007.0,   81.4, -999.0
20-10-2022, 00:46:27,    117,    0.3,   13.2,   0.00,   0.00, 1007.0,   81.5, -999.0
20-10-2022, 00:46:37,    117,    0.2,   13.2,   0.00,   0.00, 1007.0,   81.4, -999.0